Overview Statistics Trail Chart Weather Telemetry Raw packets
 

This is the latest recevied weather packets stored in our database for station/object SP9MUF-14. If no packets are shown the sender has not sent any weather packets the latest 10 day(s).

<< 38 39 40 41 42 43 44 >>
Time Temp. Humidity Pressure Rain* Wind** Luminosity Snow
1787947110 18.89° C 57% 1014.1 hPa 0 mm - 0 W/m² -
1787946806 18.89° C 56% 1014.1 hPa 0 mm - 0 W/m² -
1787946503 18.89° C 56% 1014 hPa 0 mm - 0 W/m² -
1787946201 20° C 56% 1014.1 hPa 0 mm - 0 W/m² -
1787945899 20° C 56% 1013.9 hPa 0 mm - 0 W/m² -
1787945597 20° C 55% 1013.8 hPa 0 mm - 0 W/m² -
1787945297 20° C 53% 1013.8 hPa 0 mm - 0 W/m² -
1787936884 26.67° C 36% 1013.4 hPa 0 mm - 62 W/m² -
1787936580 26.67° C 36% 1013.4 hPa 0 mm - 62 W/m² -
1787936278 26.67° C 36% 1013.4 hPa 0 mm - 62 W/m² -
1787935976 26.67° C 36% 1013.4 hPa 0 mm - 62 W/m² -
1787935674 26.67° C 36% 1013.4 hPa 0 mm - 62 W/m² -
1787935371 26.67° C 36% 1013.4 hPa 0 mm - 62 W/m² -
1787935069 26.67° C 36% 1013.4 hPa 0 mm - 62 W/m² -
1787934767 26.67° C 36% 1013.4 hPa 0 mm - 62 W/m² -
1787934163 26.67° C 36% 1013.4 hPa 0 mm - 62 W/m² -
1787933861 26.67° C 36% 1013.4 hPa 0 mm - 62 W/m² -
1787933557 26.67° C 36% 1013.4 hPa 0 mm - 62 W/m² -
1787933255 26.67° C 37% 1013.3 hPa 0 mm - 61 W/m² -
1787932953 26.67° C 37% 1013.3 hPa 0 mm - 59 W/m² -
1787932650 26.67° C 35% 1013.2 hPa 0 mm - 67 W/m² -
1787932348 26.67° C 35% 1013.4 hPa 0 mm - 73 W/m² -
1787932046 27.78° C 34% 1013.3 hPa 0 mm - 85 W/m² -
1787931441 27.78° C 34% 1013.2 hPa 0 mm - 95 W/m² -
1787931139 27.78° C 34% 1013.4 hPa 0 mm - 102 W/m² -

* Rain latest hour (hover to see other rain measurements)
** Current wind speed in m/s (hover to see current wind gust speed)